Temperature
16 16 16 16 16 16 16 16 16 16 16 15 15 15 15 15 15 14 14 14 15 14 14 14 14 14 13 13 13 13 13 13 13 12 12 12 12 12
16 16 16 16 16 16 16 16 15 15 15 15 15 15 15 14 14 14 14 14 14 14 14 14 13 13 13 13 13 13 13 12 12 12 12 12 11 11
16 16 16 16 15 15 15 15 15 15 15 15 14 14 14 14 13 13 13 13 13 13 13 13 13 13 13 13 13 12 12 12 12 12 11 11 11 11
16 16 15 15 15 15 15 15 15 15 15 14 14 14 14 13 13 13 13 13 13 13 13 13 13 13 13 12 12 12 12 12 11 11 11 11 11 10
15 15 15 15 15 15 15 15 15 14 14 14 14 13 13 13 13 12 12 12 12 12 12 12 12 12 12 12 12 12 11 11 11 11 11 10 10 10
15 15 15 15 15 15 15 14 14 14 14 14 13 13 13 12 12 12 12 12 12 12 12 12 12 11 11 11 11 11 11 11 11 10 10 10 10 9
15 14 14 14 14 14 14 14 14 14 13 13 13 13 12 12 12 12 12 11 11 11 11 11 11 11 11 11 10 10 10 10 10 10 10 9 9 9
14 14 14 14 14 14 14 14 14 13 13 13 13 12 12 12 12 12 12 11 11 11 11 11 11 10 10 10 10 10 10 10 9 9 9 9 8 8
14 14 14 13 13 13 13 13 13 13 13 12 12 12 12 12 12 11 11 11 11 11 11 10 10 10 10 10 9 9 9 9 9 9 8 8 8 7
13 13 13 13 13 13 13 13 13 12 12 12 12 12 12 12 11 11 11 11 11 10 10 10 10 9 9 9 9 9 9 9 8 8 8 7 7 7
13 13 13 13 13 12 12 12 12 12 12 12 12 12 12 11 11 11 11 11 10 10 10 10 9 9 9 9 9 8 8 8 8 7 7 7 7 6
12 12 12 12 12 12 11 11 11 11 11 11 11 11 11 11 11 11 11 11 11 10 10 9 9 9 9 9 8 8 8 8 7 7 7 7 6 6
12 12 12 12 12 12 11 11 11 11 11 11 11 10 10 10 10 10 10 10 10 10 10 9 9 9 9 8 8 8 7 7 7 7 7 6 6 6
11 11 11 11 11 11 11 11 11 11 10 10 10 10 10 10 10 10 10 9 9 9 9 9 9 9 9 9 8 7 7 7 7 6 6 6 6 5
11 11 11 11 10 10 10 10 10 10 10 10 10 10 9 9 9 9 9 9 9 9 9 8 8 8 8 8 8 7 7 7 6 6 6 6 6 5
11 11 10 10 10 10 10 10 10 9 9 9 9 9 9 9 9 9 9 9 9 9 8 8 8 8 8 8 8 7 7 7 6 6 6 6 6 5
10 10 9 9 9 9 9 9 9 9 9 9 9 9 9 9 9 9 8 8 9 8 8 8 7 7 7 7 7 7 7 6 6 6 5 5 5 5
9 9 9 9 9 9 9 9 9 8 8 8 8 8 8 8 8 8 8 8 8 8 8 8 7 7 7 7 7 6 6 6 6 6 5 5 6 6
9 9 9 9 9 8 8 8 8 8 8 8 8 8 8 8 8 8 8 8 8 8 8 7 7 7 7 7 7 6 6 6 6 6 6 6 6 6
9 9 8 8 8 8 8 8 8 8 8 8 8 8 8 8 8 8 8 8 8 8 7 7 7 7 7 7 7 6 6 6 6 6 6 6 6 6
9 8 8 8 8 8 8 8 8 8 8 8 8 7 8 8 7 7 7 7 7 7 7 7 7 6 6 6 6 6 6 6 5 5 6 6 6 6
8 8 8 8 8 8 7 7 7 7 7 7 7 7 7 7 7 7 7 7 7 7 7 7 6 6 6 6 6 6 6 6 6 6 5 6 6 6
8 8 8 8 7 7 7 7 7 7 7 7 7 7 7 7 7 7 7 7 7 7 7 7 6 6 6 6 6 6 6 6 6 6 6 6 6 5
Wind_Speed
6 6 6 6 5 6 6 6 6 6 5 4 3 1 0 1 2 2 2 5 7 8 8 8 8 8 8 8 7 7 7 7 7 7 7 6 6 6
4 5 5 5 5 5 6 6 6 6 5 3 2 1 1 1 2 2 2 4 5 7 8 8 8 8 8 8 7 8 8 8 8 8 8 7 7 6
3 3 4 5 5 4 5 5 5 5 5 4 1 1 1 1 1 1 1 2 3 6 8 8 8 8 9 9 9 9 9 9 9 8 8 8 8 7
3 3 4 4 4 4 4 4 4 4 5 4 3 2 2 1 1 1 1 2 2 5 7 7 7 8 8 8 9 9 9 9 9 9 9 8 8 7
2 3 3 3 3 3 3 3 3 3 3 4 3 2 2 2 1 1 1 1 2 3 5 6 6 7 8 9 9 10 10 10 9 9 9 8 8 8
1 1 2 2 2 2 2 2 2 3 3 3 3 2 2 1 1 2 1 1 1 2 3 5 6 6 6 7 8 10 10 10 10 10 9 9 9 9
0 0 1 2 3 2 2 2 2 3 3 3 3 2 2 2 2 2 2 1 0 1 2 3 4 4 4 5 6 8 10 10 10 10 10 9 10 9
0 0 0 0 1 2 2 2 2 2 2 3 3 3 4 3 3 3 3 2 2 1 2 2 3 2 3 4 6 8 9 11 11 10 10 10 10 10
0 1 1 1 1 1 1 1 0 1 2 3 4 4 4 4 4 3 3 3 2 2 2 2 2 2 2 4 7 9 10 11 11 11 11 11 10 10
1 1 1 1 2 2 1 1 1 1 1 2 2 2 2 3 4 4 3 3 2 2 2 2 2 2 2 4 7 9 10 10 11 11 11 11 10 10
2 2 1 2 3 3 1 1 1 1 3 3 2 2 2 1 2 3 3 3 3 2 2 2 2 2 2 2 5 8 9 9 10 11 11 11 11 10
2 2 4 3 3 3 0 0 0 1 1 1 2 3 3 3 3 3 3 3 3 2 2 3 3 3 2 2 3 5 6 8 10 10 10 11 10 7
1 1 2 3 3 4 3 1 2 2 1 1 1 2 2 2 2 2 1 2 2 1 2 3 2 2 2 2 2 2 4 5 6 7 10 10 10 7
1 1 2 2 1 1 1 2 3 4 1 1 1 1 1 1 1 1 1 1 1 0 1 2 2 2 2 2 2 2 3 4 4 4 5 10 10 10
1 4 3 2 2 2 1 2 3 1 1 1 1 1 1 1 1 2 2 3 3 3 3 1 1 2 2 2 2 2 2 2 3 3 4 4 5 6
2 4 4 2 1 2 2 1 0 1 0 1 1 1 1 1 1 1 1 2 2 2 3 2 1 2 2 2 3 3 3 2 3 3 2 3 5 6
2 2 2 2 1 1 1 1 1 1 1 1 1 1 1 1 1 1 1 1 2 2 2 2 3 2 1 2 2 3 2 3 3 3 4 4 4 6
2 2 2 2 2 2 2 2 1 1 0 0 1 1 1 1 1 1 1 2 2 1 2 2 3 3 2 2 2 3 3 3 3 4 5 5 5 5
3 2 2 1 1 1 1 1 1 1 1 2 1 1 1 1 2 2 2 2 2 1 1 2 2 3 3 2 4 5 3 3 3 4 5 5 5 5
2 2 2 2 2 2 2 2 2 2 2 2 2 2 2 2 2 2 2 2 2 2 2 2 2 2 3 2 1 3 7 4 4 4 4 4 4 4
3 2 2 2 2 2 2 2 3 2 2 2 2 2 2 3 2 2 2 1 2 2 3 2 1 1 2 2 2 3 4 8 6 4 4 5 5 5
2 2 2 2 2 2 2 2 2 2 2 2 2 2 2 3 3 3 3 2 3 3 3 2 2 2 3 4 4 3 3 4 8 10 9 7 5 5
2 2 2 2 2 2 2 2 2 2 2 2 2 2 3 3 3 3 3 4 3 3 3 3 2 3 4 4 5 5 5 5 5 6 7 11 12 11
Wind_Direction
259 256 258 264 258 250 246 242 248 260 261 245 243 275 138 135 133 173 164 152 168 179 183 186 185 188 186 185 182 180 184 187 185 183 177 169 167 167
266 275 272 271 272 261 254 249 249 253 265 275 252 236 120 100 123 138 140 131 159 178 184 184 183 181 179 182 182 180 181 180 179 176 173 172 171 174
275 277 278 281 275 269 257 248 243 238 246 263 258 219 201 211 128 110 112 123 126 161 173 177 181 180 179 180 182 181 181 178 176 175 175 173 170 171
278 289 287 282 272 270 263 251 244 237 236 238 245 246 230 210 190 168 125 116 108 122 149 168 176 179 179 178 177 173 170 167 165 163 163 164 165 164
274 280 288 290 283 277 268 261 252 239 232 226 235 241 242 218 182 135 110 108 113 128 141 149 162 175 178 173 169 166 165 161 158 156 156 156 155 154
269 282 293 299 297 294 279 266 251 241 224 215 215 218 225 223 199 196 192 175 174 140 128 131 138 150 160 167 169 168 166 164 163 161 159 156 151 151
109 343 337 15 20 349 311 291 260 248 232 214 207 207 210 208 206 214 205 187 196 179 161 150 143 140 142 160 172 175 171 168 166 165 162 161 157 155
127 329 317 73 74 67 42 10 328 266 248 231 228 219 221 219 209 212 215 228 231 202 183 168 152 157 157 150 159 168 168 167 165 164 163 160 158 155
52 0 344 40 72 65 98 146 47 351 271 247 237 237 228 215 206 211 227 239 244 185 189 170 172 166 158 143 155 165 167 166 167 170 170 167 164 161
54 51 35 18 16 16 34 28 14 15 322 262 248 245 218 202 202 210 203 196 188 176 199 201 190 183 161 144 155 163 166 170 174 176 176 172 170 167
69 51 48 60 27 0 43 40 21 18 80 84 87 101 94 141 193 204 199 196 198 186 189 206 186 172 158 147 151 164 170 173 176 178 180 181 183 183
98 83 63 51 19 351 348 245 275 312 19 106 132 154 157 156 181 218 224 218 207 194 177 197 183 177 173 149 151 161 166 170 175 178 181 184 186 192
143 115 77 62 24 347 327 343 297 284 239 198 169 163 167 170 178 182 240 248 236 222 171 189 192 186 184 164 152 153 161 159 165 169 172 177 184 197
170 118 100 97 57 344 18 11 286 270 219 158 143 140 151 154 141 123 97 51 22 22 164 190 199 192 185 175 159 152 165 170 174 178 175 174 189 200
82 71 101 157 182 149 128 268 268 240 163 160 152 140 128 122 159 158 144 123 102 90 112 148 186 178 191 185 162 171 184 187 190 189 191 191 195 199
116 121 143 178 227 87 152 196 140 62 64 125 102 109 123 150 185 176 170 156 140 125 117 129 172 193 194 177 176 183 186 192 190 193 207 217 210 211
150 158 165 168 175 147 134 109 119 129 136 125 148 163 180 185 186 171 184 190 191 180 156 155 164 181 213 212 194 187 187 191 193 192 215 225 225 223
197 180 186 194 202 199 202 190 178 147 166 179 192 202 214 217 202 182 194 208 212 208 192 171 166 170 187 182 199 202 210 208 203 197 223 234 231 222
211 199 199 209 223 224 223 221 208 195 228 234 232 232 228 227 226 218 214 219 218 211 204 199 205 217 226 218 180 198 216 217 221 219 226 237 243 235
233 225 220 227 236 242 240 234 229 217 223 245 247 247 244 238 232 232 225 225 225 228 222 220 233 248 262 277 265 198 196 217 233 242 243 241 243 227
227 238 241 244 244 242 248 249 246 245 246 249 250 252 255 255 255 253 241 189 241 243 243 242 226 234 260 263 244 223 201 197 218 248 256 253 248 242
238 240 245 258 258 252 249 254 257 254 247 251 259 255 254 256 256 258 258 244 242 250 258 250 176 216 239 238 242 239 234 210 207 215 232 251 265 268
238 246 244 241 254 264 263 261 263 260 257 263 260 258 262 264 269 268 260 253 249 245 246 244 234 233 243 241 244 247 243 236 235 223 222 217 225 238
Height
1560 1559 1559 1560 1560 1559 1560 1560 1560 1559 1559 1559 1559 1559 1559 1559 1558 1557 1557 1556 1557 1557 1557 1558 1558 1558 1559 1560 1560 1561 1561 1562 1562 1563 1563 1563 1564 1564
1556 1556 1556 1556 1556 1555 1556 1556 1556 1556 1556 1556 1556 1556 1555 1555 1554 1554 1553 1553 1553 1553 1553 1553 1554 1554 1554 1555 1556 1557 1557 1558 1559 1559 1560 1560 1561 1561
1553 1553 1552 1552 1552 1552 1552 1552 1552 1552 1552 1552 1552 1552 1551 1551 1551 1550 1550 1549 1549 1549 1549 1549 1550 1550 1550 1551 1552 1553 1553 1554 1555 1555 1556 1556 1557 1558
1551 1550 1550 1549 1549 1549 1548 1549 1549 1549 1549 1548 1548 1548 1548 1548 1547 1547 1547 1546 1546 1546 1546 1546 1546 1546 1547 1547 1548 1549 1549 1550 1551 1551 1552 1552 1553 1554
1548 1548 1547 1547 1546 1546 1546 1546 1546 1546 1546 1545 1545 1545 1545 1545 1544 1544 1544 1544 1544 1543 1543 1543 1543 1543 1543 1543 1544 1544 1545 1546 1547 1547 1548 1549 1549 1550
1546 1545 1545 1544 1544 1543 1543 1543 1543 1543 1543 1542 1542 1542 1542 1542 1542 1542 1541 1541 1541 1541 1541 1540 1540 1540 1540 1540 1540 1540 1541 1542 1542 1543 1544 1545 1545 1546
1543 1543 1542 1542 1541 1541 1541 1541 1540 1540 1540 1540 1540 1539 1539 1539 1539 1539 1539 1539 1539 1539 1539 1538 1538 1538 1537 1537 1537 1537 1537 1538 1539 1539 1540 1541 1542 1543
1541 1541 1540 1540 1539 1539 1539 1538 1538 1538 1537 1537 1537 1537 1536 1537 1537 1537 1537 1537 1537 1537 1537 1537 1537 1536 1536 1535 1534 1534 1534 1535 1535 1536 1537 1538 1539 1540
1539 1539 1539 1538 1538 1537 1537 1536 1536 1535 1535 1535 1535 1534 1534 1534 1534 1535 1535 1535 1535 1535 1535 1534 1535 1534 1534 1533 1532 1532 1532 1533 1533 1534 1535 1536 1536 1538
1537 1537 1536 1536 1536 1535 1535 1534 1534 1533 1533 1532 1532 1532 1532 1532 1532 1533 1532 1532 1532 1532 1533 1533 1533 1532 1532 1531 1531 1531 1531 1531 1532 1533 1533 1534 1534 1535
1536 1535 1535 1535 1534 1533 1533 1532 1531 1531 1531 1530 1529 1529 1529 1529 1530 1531 1531 1531 1530 1530 1530 1531 1531 1530 1530 1530 1530 1529 1529 1529 1530 1530 1531 1532 1533 1533
1534 1534 1533 1533 1532 1532 1531 1531 1530 1529 1529 1528 1528 1527 1527 1527 1527 1527 1528 1528 1528 1528 1528 1528 1529 1529 1529 1529 1529 1528 1528 1528 1528 1528 1529 1530 1531 1532
1534 1533 1532 1531 1531 1530 1529 1529 1528 1528 1527 1527 1526 1526 1526 1525 1525 1525 1525 1526 1526 1526 1526 1526 1526 1526 1526 1526 1527 1527 1527 1527 1527 1527 1527 1528 1529 1530
1533 1532 1531 1530 1529 1529 1528 1527 1527 1526 1526 1525 1525 1524 1524 1524 1523 1523 1523 1523 1523 1523 1523 1523 1524 1523 1524 1523 1524 1525 1525 1525 1526 1526 1527 1527 1528 1529
1531 1530 1529 1529 1528 1527 1527 1525 1525 1525 1524 1524 1523 1523 1523 1522 1522 1521 1521 1521 1521 1521 1521 1520 1521 1521 1521 1521 1521 1522 1523 1523 1524 1525 1525 1526 1527 1528
1529 1528 1528 1527 1527 1526 1525 1525 1524 1523 1523 1523 1522 1522 1522 1521 1521 1521 1520 1520 1520 1519 1519 1518 1518 1519 1519 1519 1519 1520 1521 1521 1522 1523 1524 1524 1525 1526
1527 1527 1527 1526 1526 1525 1525 1524 1523 1523 1522 1522 1521 1520 1520 1520 1520 1520 1519 1519 1519 1518 1518 1517 1517 1517 1517 1517 1518 1518 1519 1520 1520 1521 1521 1523 1524 1525
1526 1526 1526 1525 1525 1524 1524 1523 1522 1522 1521 1521 1520 1519 1519 1519 1518 1518 1518 1517 1517 1517 1516 1516 1516 1516 1516 1516 1516 1516 1517 1518 1518 1519 1520 1521 1521 1523
1524 1524 1524 1524 1523 1523 1522 1522 1521 1520 1520 1520 1519 1519 1518 1517 1517 1516 1516 1516 1515 1515 1515 1514 1514 1514 1514 1514 1514 1514 1515 1516 1517 1517 1518 1519 1519 1520
1523 1523 1523 1522 1522 1522 1521 1521 1520 1519 1519 1518 1518 1517 1517 1516 1516 1515 1514 1514 1514 1513 1513 1513 1513 1512 1513 1513 1513 1513 1513 1514 1515 1515 1516 1516 1517 1517
1521 1521 1521 1521 1521 1520 1519 1519 1519 1518 1517 1517 1516 1516 1515 1514 1514 1513 1513 1512 1512 1512 1511 1511 1511 1511 1511 1511 1512 1512 1512 1512 1512 1513 1513 1514 1514 1514
1519 1519 1519 1519 1519 1518 1517 1517 1517 1516 1515 1515 1514 1514 1513 1513 1512 1512 1511 1511 1510 1510 1510 1510 1509 1509 1510 1510 1509 1510 1511 1511 1510 1510 1510 1511 1511 1511
1517 1518 1518 1517 1517 1516 1516 1515 1515 1514 1513 1513 1512 1512 1511 1511 1510 1510 1509 1509 1508 1508 1508 1508 1508 1508 1507 1508 1508 1508 1508 1508 1509 1509 1508 1508 1508 1508